Back to catalog

STARLINK-4563

AliveCommunicationsVLEO
NORAD 53561·PAYLOAD·🇺🇸 United States

Launched Aug 19, 2022 from Cape Canaveral Space Force Station

Loading…

Next Passes (next 24 hours)

TLE

FreshSource: CelesTrak SupGP

Epoch: Sep 14, 2026, 13:21 UTC

1 53561C 22101AL  26257.55673611  .00043270  00000+0  12794-2 0  2579
2 53561  53.1564 285.1550 0001247  87.3510 210.6817 15.34344337    13

Track STARLINK-4563 in real time with AllMySat

Download on the App Store